This demonstration page uses our WeatherBlox Daily Observations layout. Learn more.

Left ArrowRight Arrow

44.8408, -93.29828

Hourly Observations for November 5, 2019

Temp ( °F °C ) Dew Point ( °F °C ) Humidity (%) Winds ( mph kmh ) Pressure ( in mb ) Visibility ( mi km ) Precip ( " mm )
12:53 am 00:53 Mostly Cloudy 27 -2.8 13 -10.6 55 55 NNW 12 19 30.22 1023 10 16 0.00 0.00
1:53 am 01:53 Mostly Clear 25 -3.9 11 -11.7 55 55 NW 15 24 30.24 1024 10 16 0.00 0.00
2:53 am 02:53 Mostly Clear 24 -4.4 11 -11.7 57 57 NW 9 15 30.24 1024 10 16 0.00 0.00
3:53 am 03:53 Clear 22 -5.6 10 -12.2 60 60 WNW 5 7 30.26 1025 10 16 0.00 0.00
4:53 am 04:53 Clear 23 -5 10 -12.2 57 57 W 3 6 30.28 1025 10 16 0.00 0.00
5:53 am 05:53 Mostly Clear 22 -5.6 12 -11.1 66 66 W 7 11 30.28 1026 10 16 0.00 0.00
6:53 am 06:53 Mostly Clear 22 -5.6 13 -10.6 68 68 WNW 8 13 30.29 1026 10 16 0.00 0.00
7:53 am 07:53 Mostly Sunny 24 -4.4 9 -12.8 52 52 NNW 15 24 30.32 1027 10 16 0.00 0.00
8:53 am 08:53 Sunny 25 -3.9 8 -13.3 48 48 NW 20 31 30.34 1028 10 16 0.00 0.00
9:53 am 09:53 Sunny 28 -2.2 9 -12.8 44 44 NNW 16 26 30.34 1028 10 16 0.00 0.00
10:53 am 10:53 Sunny 29 -1.7 9 -12.8 43 43 NW 13 20 30.35 1028 10 16 0.00 0.00
11:53 am 11:53 Mostly Sunny 31 -0.6 10 -12.2 42 42 NW 8 13 30.34 1028 10 16 0.00 0.00
12:53 pm 12:53 Mostly Sunny 31 -0.6 10 -12.2 42 42 W 12 19 30.32 1027 10 16 0.00 0.00
1:53 pm 13:53 Mostly Sunny 32 0 9 -12.8 38 38 W 9 15 30.31 1026 10 16 0.00 0.00
2:53 pm 14:53 Mostly Cloudy 31 -0.6 9 -12.8 40 40 W 9 15 30.31 1026 10 16 0.00 0.00
3:53 pm 15:53 Cloudy 30 -1.1 11 -11.7 45 45 WSW 7 11 30.32 1027 10 16 0.00 0.00
4:53 pm 16:53 Cloudy 30 -1.1 12 -11.1 47 47 WSW 8 13 30.32 1027 10 16 0.00 0.00
5:53 pm 17:53 Cloudy 30 -1.1 13 -10.6 49 49 WSW 7 11 30.30 1026 10 16 0.00 0.00
6:53 pm 18:53 Mostly Cloudy 29 -1.7 13 -10.6 51 51 WSW 7 11 30.30 1026 10 16 0.00 0.00
7:53 pm 19:53 Mostly Cloudy 29 -1.7 14 -10 54 54 WSW 7 11 30.32 1027 10 16 0.00 0.00
8:53 pm 20:53 Mostly Cloudy 29 -1.7 14 -10 54 54 WSW 6 9 30.32 1027 10 16 0.00 0.00
9:53 pm 21:53 Mostly Cloudy 29 -1.7 16 -8.9 58 58 VRB 5 7 30.32 1027 10 16 0.00 0.00
10:53 pm 22:53 Cloudy 28 -2.2 17 -8.3 63 63 WSW 5 7 30.32 1027 10 16 0.00 0.00
11:53 pm 23:53 Cloudy 28 -2.2 19 -7.2 69 69 WSW 3 6 30.32 1027 10 16 0.00 0.00

Powered by AerisWeather